HOME
ABOUT US
SERVICES
WEATHER INFORMATION
MEDIA CENTER
CARGO SERVICES
ENTRY PASS
TOURIST INFORMATION
CAREERS
AIRPORT MANAGEMENT TEAM
CONTACT US
 
  SUBMIT
 
 
WEATHER - TAF
The most recent TAF in our system was generated at the source at:

24/09/2016 05:23:56  UTC

TAF OMFJ 240500Z 2406/2512 VRB03KT 4000 HZ SCT020 BECMG 2407/2409 10008KT 6000 NSC BECMG 2414/2416 16006KT TEMPO 2423/2503 VRB03KT 4000 HZ BKN018 BECMG 2503/2505 09008KT

The information available here could be used for flight planning or other operational purposes. For further information on this aspect, please contact Fujairah International Airport Authority.

For further enquiries, please contact MET Section of Airport at :-
Email : met@fujairah-airport.com
Tel : +971 9 2055507
Fax : +971 9 2223149
Contat Us | Suggestions & Complaints | Links | Location Map | Employee Mail Copyright (c) 2013 Fujairah International Airport | All Rights Reserved.